カタログに戻る

KUIPER-00301

運用中通信LEO
NORAD 68598·PAYLOAD·🇺🇸 United States

打ち上げ Apr 4, 2026 から Cape Canaveral Space Force Station

Loading…

次のパス (今後24時間)

TLE

最新Source: CelesTrak SupGP

元期: Sep 14, 2026, 21:48 UTC

1 68598C 26072AB  26257.90842593  .00001600  00000+0  22720-3 0  2574
2 68598  51.9006 118.3218 0002000 175.3834 288.1220 14.76491349    18

AllMySatでKUIPER-00301をリアルタイム追跡

Download on the App Store